• In Belarus
  • List of Countries
  • For 7 days
  • Water Temperature
  • Satellite Maps
  • Weather Map
  • Weather Widgets
  • user-avatar
    Login

    Hourly Weather Jalalabad

    Today, 22 February, Friday

    Time Temperature Precipitation Wind Pressure Humidity
    00:00 +9°C° 0 mm 1 mps 713 mmHg 43%
    01:00 +9°C° 0 mm 1 mps 713 mmHg 43%
    02:00 +8°C° 0 mm 1 mps 714 mmHg 42%
    03:00 +8°C° 0 mm 1 mps 714 mmHg 42%
    04:00 +8°C° 0 mm 1 mps 714 mmHg 41%
    05:00 +7°C° 0 mm 2 mps 713 mmHg 36%
    06:00 +7°C° 0 mm 2 mps 713 mmHg 35%
    07:00 +8°C° 0 mm 2 mps 713 mmHg 34%
    08:00 +9°C° 0 mm 1 mps 714 mmHg 33%
    09:00 +10°C° 0 mm 1 mps 713 mmHg 29%
    10:00 +12°C° 0 mm 2 mps 713 mmHg 25%
    11:00 +14°C° 0 mm 2 mps 712 mmHg 21%
    12:00 +15°C° 0 mm 2 mps 712 mmHg 20%
    13:00 +15°C° 0 mm 2 mps 712 mmHg 19%
    14:00 +16°C° 0 mm 2 mps 712 mmHg 18%
    15:00 +16°C° 0 mm 1 mps 712 mmHg 18%
    16:00 +16°C° 0 mm 1 mps 712 mmHg 19%
    17:00 +16°C° 0 mm 1 mps 712 mmHg 20%
    18:00 +15°C° 0 mm 1 mps 713 mmHg 23%
    19:00 +14°C° 0 mm 2 mps 714 mmHg 25%
    20:00 +13°C° 0 mm 2 mps 714 mmHg 28%
    21:00 +13°C° 0 mm 2 mps 715 mmHg 28%
    22:00 +12°C° 0 mm 2 mps 715 mmHg 29%
    23:00 +12°C° 0 mm 2 mps 715 mmHg 29%

    Tomorrow, 23 February, Saturday

    Time Temperature Precipitation Wind Pressure Humidity
    00:00 +10°C° 0 mm 2 mps 715 mmHg 29%
    01:00 +10°C° 0 mm 2 mps 715 mmHg 30%
    02:00 +9°C° 0 mm 2 mps 715 mmHg 30%
    03:00 +9°C° 0 mm 2 mps 714 mmHg 30%
    04:00 +9°C° 0 mm 2 mps 714 mmHg 29%
    05:00 +8°C° 0 mm 2 mps 714 mmHg 29%
    06:00 +9°C° 0 mm 2 mps 714 mmHg 28%
    07:00 +9°C° 0 mm 2 mps 714 mmHg 26%
    08:00 +9°C° 0 mm 2 mps 714 mmHg 25%
    09:00 +12°C° 0 mm 2 mps 713 mmHg 22%
    10:00 +12°C° 0 mm 3 mps 713 mmHg 18%
    11:00 +14°C° 0 mm 3 mps 712 mmHg 15%
    12:00 +16°C° 0 mm 3 mps 712 mmHg 15%
    13:00 +16°C° 0 mm 3 mps 711 mmHg 15%
    14:00 +17°C° 0 mm 2 mps 711 mmHg 16%
    15:00 +17°C° 0 mm 2 mps 710 mmHg 16%
    16:00 +17°C° 0 mm 2 mps 710 mmHg 16%
    17:00 +17°C° 0 mm 2 mps 710 mmHg 16%
    18:00 +16°C° 0 mm 2 mps 710 mmHg 17%
    19:00 +15°C° 0 mm 2 mps 711 mmHg 19%
    20:00 +14°C° 0 mm 1 mps 711 mmHg 21%
    21:00 +13°C° 0 mm 2 mps 711 mmHg 21%
    22:00 +13°C° 0 mm 2 mps 711 mmHg 21%
    23:00 +13°C° 0 mm 2 mps 711 mmHg 21%

    Day after tomorrow, 24 February, Sunday

    Time Temperature Precipitation Wind Pressure Humidity
    00:00 +12°C° 0 mm 2 mps 711 mmHg 22%
    01:00 +12°C° 0 mm 2 mps 711 mmHg 23%
    02:00 +10°C° 0 mm 2 mps 711 mmHg 24%
    03:00 +10°C° 0 mm 2 mps 710 mmHg 25%
    04:00 +9°C° 0 mm 2 mps 710 mmHg 26%
    05:00 +9°C° 0 mm 3 mps 710 mmHg 26%
    06:00 +9°C° 0 mm 3 mps 710 mmHg 26%
    07:00 +9°C° 0 mm 3 mps 710 mmHg 26%
    08:00 +10°C° 0 mm 3 mps 710 mmHg 26%
    09:00 +11°C° 0 mm 3 mps 710 mmHg 23%
    10:00 +13°C° 0 mm 3 mps 710 mmHg 20%
    11:00 +14°C° 0 mm 3 mps 710 mmHg 17%
    12:00 +16°C° 0 mm 3 mps 710 mmHg 17%
    13:00 +16°C° 0 mm 3 mps 709 mmHg 17%
    14:00 +17°C° 0 mm 3 mps 709 mmHg 17%
    15:00 +17°C° 0 mm 3 mps 709 mmHg 17%
    16:00 +17°C° 0 mm 3 mps 708 mmHg 18%
    17:00 +16°C° 0 mm 2 mps 708 mmHg 18%
    18:00 +15°C° 0 mm 2 mps 709 mmHg 20%
    19:00 +14°C° 0 mm 2 mps 710 mmHg 22%
    20:00 +13°C° 0 mm 2 mps 710 mmHg 25%
    21:00 +13°C° 0 mm 2 mps 710 mmHg 25%
    22:00 +12°C° 0 mm 2 mps 711 mmHg 26%
    23:00 +12°C° 0 mm 2 mps 711 mmHg 27%

    25 February, Monday

    Time Temperature Precipitation Wind Pressure Humidity
    00:00 +10°C° 0 mm 2 mps 711 mmHg 28%
    01:00 +10°C° 0 mm 2 mps 710 mmHg 29%
    02:00 +9°C° 0 mm 2 mps 710 mmHg 30%
    03:00 +9°C° 0 mm 2 mps 710 mmHg 31%
    04:00 +8°C° 0 mm 2 mps 710 mmHg 32%
    05:00 +8°C° 0 mm 2 mps 710 mmHg 32%
    06:00 +8°C° 0 mm 2 mps 710 mmHg 32%
    07:00 +8°C° 0 mm 2 mps 710 mmHg 31%
    08:00 +9°C° 0 mm 2 mps 711 mmHg 31%
    09:00 +10°C° 0 mm 2 mps 711 mmHg 27%
    10:00 +12°C° 0 mm 2 mps 710 mmHg 24%
    11:00 +14°C° 0 mm 2 mps 710 mmHg 21%
    12:00 +14°C° 0 mm 2 mps 710 mmHg 20%
    13:00 +15°C° 0 mm 2 mps 709 mmHg 20%
    14:00 +15°C° 0 mm 2 mps 708 mmHg 19%
    15:00 +15°C° 0 mm 2 mps 708 mmHg 20%
    16:00 +15°C° 0 mm 2 mps 708 mmHg 20%
    17:00 +15°C° 0 mm 2 mps 708 mmHg 20%
    18:00 +14°C° 0 mm 2 mps 709 mmHg 22%
    19:00 +14°C° 0 mm 1 mps 709 mmHg 23%
    20:00 +13°C° 0 mm 1 mps 710 mmHg 25%
    21:00 +12°C° 0 mm 2 mps 710 mmHg 25%
    22:00 +12°C° 0 mm 2 mps 710 mmHg 25%
    23:00 +12°C° 0 mm 2 mps 710 mmHg 26%

    26 February, Tuesday

    Time Temperature Precipitation Wind Pressure Humidity
    00:00 +10°C° 0 mm 2 mps 709 mmHg 26%
    01:00 +10°C° 0 mm 2 mps 709 mmHg 27%
    02:00 +9°C° 0 mm 2 mps 709 mmHg 27%
    03:00 +9°C° 0 mm 2 mps 709 mmHg 28%
    04:00 +8°C° 0 mm 2 mps 708 mmHg 28%
    05:00 +8°C° 0 mm 2 mps 708 mmHg 29%
    06:00 +8°C° 0 mm 2 mps 709 mmHg 28%
    07:00 +8°C° 0 mm 2 mps 709 mmHg 28%
    08:00 +8°C° 0 mm 2 mps 709 mmHg 27%
    09:00 +10°C° 0 mm 2 mps 709 mmHg 25%
    10:00 +12°C° 0 mm 2 mps 709 mmHg 23%
    11:00 +13°C° 0 mm 2 mps 709 mmHg 21%
    12:00 +13°C° 0 mm 2 mps 708 mmHg 22%
    13:00 +14°C° 0 mm 2 mps 707 mmHg 23%
    14:00 +14°C° 0 mm 2 mps 707 mmHg 23%
    15:00 +14°C° 0 mm 2 mps 707 mmHg 23%
    16:00 +14°C° 0 mm 2 mps 706 mmHg 23%
    17:00 +14°C° 0 mm 2 mps 706 mmHg 23%
    18:00 +14°C° 0 mm 2 mps 706 mmHg 24%
    19:00 +13°C° 0 mm 2 mps 706 mmHg 25%
    20:00 +12°C° 0 mm 2 mps 706 mmHg 25%
    21:00 +11°C° 0 mm 3 mps 706 mmHg 24%
    22:00 +10°C° 0 mm 3 mps 706 mmHg 23%
    23:00 +10°C° 0 mm 3 mps 706 mmHg 23%

    27 February, Wednesday

    Time Temperature Precipitation Wind Pressure Humidity
    00:00 +9°C° 0 mm 3 mps 706 mmHg 23%
    01:00 +9°C° 0 mm 3 mps 705 mmHg 23%
    02:00 +8°C° 0 mm 3 mps 705 mmHg 23%
    03:00 +8°C° 0 mm 3 mps 705 mmHg 24%
    04:00 +8°C° 0 mm 3 mps 704 mmHg 25%
    05:00 +7°C° 0 mm 3 mps 704 mmHg 26%
    06:00 +8°C° 0 mm 3 mps 704 mmHg 26%
    07:00 +8°C° 0 mm 3 mps 704 mmHg 25%
    08:00 +8°C° 0 mm 3 mps 705 mmHg 25%
    09:00 +10°C° 0 mm 3 mps 704 mmHg 22%
    10:00 +12°C° 0 mm 3 mps 704 mmHg 18%
    11:00 +14°C° 0 mm 3 mps 704 mmHg 15%
    12:00 +15°C° 0 mm 2 mps 704 mmHg 14%
    13:00 +16°C° 0 mm 2 mps 704 mmHg 13%
    14:00 +18°C° 0 mm 1 mps 704 mmHg 12%
    15:00 +18°C° 0 mm 1 mps 705 mmHg 13%
    16:00 +17°C° 0 mm 2 mps 705 mmHg 13%
    17:00 +17°C° 0 mm 2 mps 705 mmHg 14%
    18:00 +16°C° 0 mm 1 mps 706 mmHg 17%
    19:00 +15°C° 0 mm 1 mps 707 mmHg 21%
    20:00 +13°C° 0 mm 1 mps 708 mmHg 24%
    21:00 +13°C° 0 mm 1 mps 708 mmHg 25%
    22:00 +12°C° 0 mm 1 mps 709 mmHg 25%
    23:00 +12°C° 0 mm 1 mps 709 mmHg 26%
    Show more